GW6381 Weather Reports


Display with metric or nautical units.
time (UTC)temp
F
wind
direction
speed
MPH
gust
MPH
rain 1hr
in
rain 24hr
in
rain mn
in
humidity
%
barometer
mb
20260504100506 46 127 2.0 6.0 0.00 0.00 0.00 81 1006.6
20260504082005 46 282 0.0 3.0 0.00 0.00 0.00 74 1007.3
20260504081512 46 196 0.0 3.0 0.00 0.00 0.00 73 1007.2
20260504081008 46 146 0.0 4.0 0.00 0.00 0.00 73 1007.2
20260504080507 46 117 0.0 4.0 0.00 0.00 0.00 73 1007.2
20260504050505 45 165 0.0 3.0 0.00 0.00 0.00 56 1007.6
20260504050011 45 142 0.0 3.0 0.00 0.00 0.00 55 1007.7
20260504045506 45 127 1.0 3.0 0.00 0.00 0.00 55 1007.8
20260504045004 45 148 1.0 4.0 0.00 0.00 0.00 55 1007.7
20260504044521 45 258 0.0 4.0 0.00 0.00 0.00 56 1007.7
20260504044010 44 147 1.0 4.0 0.00 0.00 0.00 56 1007.8
20260504043509 44 145 1.0 2.0 0.00 0.00 0.00 56 1007.9
20260504043029 44 164 0.0 2.0 0.00 0.00 0.00 57 1007.9
20260504042510 44 161 0.0 1.0 0.00 0.00 0.00 58 1007.9
20260504042010 43 142 0.0 1.0 0.00 0.00 0.00 60 1008.0
20260504041525 43 145 0.0 1.0 0.00 0.00 0.00 61 1008.1
20260504041008 42 139 0.0 3.0 0.00 0.00 0.00 63 1008.0
20260504040508 42 162 0.0 3.0 0.00 0.00 0.00 66 1008.0
20260504040016 41 127 0.0 1.0 0.00 0.00 0.00 67 1008.0
20260504035504 41 127 0.0 0.0 0.00 0.00 0.00 69 1008.0
20260504035003 40 127 0.0 0.0 0.00 0.00 0.00 70 1008.0
20260504034512 40 127 0.0 1.0 0.00 0.00 0.00 70 1008.1
20260504034007 40 127 0.0 1.0 0.00 0.00 0.00 68 1008.1
20260504033506 40 127 0.0 0.0 0.00 0.00 0.00 67 1008.1
20260504033017 40 127 0.0 0.0 0.00 0.00 0.00 67 1008.1
20260504032508 40 127 0.0 1.0 0.00 0.00 0.00 66 1008.0
20260504032008 40 127 0.0 1.0 0.00 0.00 0.00 66 1008.0
20260504031522 40 127 0.0 1.0 0.00 0.00 0.00 67 1007.9
20260504031010 40 127 0.0 1.0 0.00 0.00 0.00 67 1007.8
20260504030508 39 127 0.0 1.0 0.00 0.00 0.00 68 1007.9
20260504030026 39 153 0.0 0.0 0.00 0.00 0.00 69 1007.9
20260504025512 39 153 0.0 1.0 0.00 0.00 0.00 70 1007.9
20260504025010 39 153 0.0 1.0 0.00 0.00 0.00 71 1008.0
20260504024528 39 157 0.0 1.0 0.00 0.00 0.00 71 1008.0
20260504024003 39 136 0.0 1.0 0.00 0.00 0.00 72 1008.0
20260504023506 40 136 0.0 1.0 0.00 0.00 0.00 72 1008.1
20260504023012 40 136 0.0 1.0 0.00 0.00 0.00 71 1008.2
20260504022507 40 136 0.0 1.0 0.00 0.00 0.00 72 1008.2
20260504022009 39 122 0.0 1.0 0.00 0.00 0.00 72 1008.3
20260504021519 40 121 0.0 1.0 0.00 0.00 0.00 72 1008.3
20260504021007 40 121 0.0 0.0 0.00 0.00 0.00 71 1008.3
20260504020507 40 121 0.0 1.0 0.00 0.00 0.00 70 1008.3
20260504020024 40 121 0.0 1.0 0.00 0.01 0.00 69 1008.3
20260504015509 40 121 0.0 1.0 0.00 0.01 0.00 69 1008.4
20260504015011 41 121 0.0 0.0 0.00 0.01 0.00 68 1008.4
20260504014533 41 121 0.0 1.0 0.00 0.01 0.00 67 1008.4
20260504014010 41 121 0.0 1.0 0.00 0.01 0.00 67 1008.5
20260504013508 41 121 0.0 1.0 0.00 0.01 0.00 66 1008.5
20260504013030 41 121 0.0 2.0 0.00 0.01 0.00 66 1008.5
20260504012506 42 120 0.0 2.0 0.00 0.01 0.00 67 1008.5
20260504012007 41 123 0.0 2.0 0.00 0.01 0.00 66 1008.5
20260504011515 41 146 0.0 1.0 0.00 0.01 0.00 66 1008.4
20260504011004 41 146 0.0 0.0 0.00 0.01 0.00 66 1008.4
20260504010508 41 146 0.0 1.0 0.00 0.01 0.00 65 1008.3
20260504010022 41 146 0.0 1.0 0.00 0.01 0.00 64 1008.3
20260504005506 41 146 0.0 1.0 0.00 0.01 0.00 64 1008.3
20260504005008 41 146 0.0 1.0 0.00 0.02 0.00 63 1008.2
20260504004524 41 146 0.0 1.0 0.00 0.02 0.00 63 1008.1
20260504004010 42 146 0.0 0.0 0.00 0.02 0.00 61 1008.1
20260504003510 42 146 0.0 0.0 0.00 0.02 0.00 60 1008.0
20260504003026 43 146 0.0 0.0 0.00 0.02 0.00 59 1008.0
20260504002510 44 146 0.0 0.0 0.00 0.02 0.00 57 1008.0
20260504002010 44 146 0.0 0.0 0.00 0.02 0.00 55 1008.0
20260504001532 45 146 0.0 0.0 0.00 0.02 0.00 54 1008.0
20260504001007 45 146 0.0 1.0 0.00 0.02 0.00 52 1008.0
20260504000505 46 146 0.0 1.0 0.00 0.02 0.00 52 1008.0
20260504000019 46 146 0.0 1.0 0.00 0.02 0.00 50 1008.0
20260503235507 47 146 0.0 1.0 0.00 0.02 0.00 50 1007.9
20260503235008 47 146 0.0 1.0 0.00 0.02 0.00 48 1007.9
20260503234522 48 146 0.0 2.0 0.00 0.02 0.00 48 1007.9
20260503234008 48 146 0.0 2.0 0.00 0.02 0.00 46 1007.9
20260503233508 49 150 0.0 0.0 0.00 0.02 0.00 47 1007.9
20260503233026 49 150 0.0 0.0 0.00 0.02 0.00 46 1007.9
20260503232511 50 150 0.0 1.0 0.00 0.02 0.00 45 1007.9
20260503232010 50 150 0.0 1.0 0.00 0.02 0.00 45 1007.8
20260503231529 51 143 0.0 1.0 0.00 0.02 0.00 45 1007.8
20260503231007 51 143 0.0 1.0 0.00 0.02 0.00 45 1007.7
20260503230507 51 144 0.0 1.0 0.00 0.03 0.00 44 1007.7
20260503230028 51 143 0.0 2.0 0.00 0.03 0.00 46 1007.8
20260503225504 51 139 0.0 2.0 0.00 0.03 0.00 46 1007.8
20260503225007 51 147 0.0 0.0 0.00 0.03 0.00 46 1007.8
20260503224517 51 147 0.0 0.0 0.00 0.03 0.00 47 1007.8
20260503224008 51 147 0.0 0.0 0.00 0.03 0.00 47 1007.8
20260503223510 51 146 0.0 1.0 0.00 0.04 0.00 47 1007.8
20260503223024 51 146 0.0 2.0 0.00 0.04 0.00 45 1007.9
20260503222510 51 198 0.0 2.0 0.00 0.04 0.00 46 1007.9
20260503222010 51 143 0.0 1.0 0.00 0.04 0.00 46 1007.9
20260503221525 51 143 0.0 1.0 0.00 0.04 0.00 46 1007.9
20260503221010 52 140 0.0 1.0 0.00 0.05 0.00 46 1007.9
20260503220514 52 140 0.0 1.0 0.00 0.05 0.00 45 1007.9
20260503220028 52 139 0.0 1.0 0.00 0.05 0.00 44 1007.8
20260503215511 52 155 0.0 1.0 0.00 0.05 0.00 45 1007.8
20260503215007 52 158 0.0 1.0 0.00 0.05 0.00 45 1007.9
20260503214535 52 134 0.0 1.0 0.00 0.05 0.00 46 1007.9
20260503214009 52 135 0.0 1.0 0.00 0.05 0.00 43 1007.9
20260503213507 52 134 0.0 1.0 0.00 0.06 0.00 44 1007.9
20260503213021 52 136 0.0 1.0 0.00 0.06 0.00 44 1007.8
20260503212503 52 116 0.0 1.0 0.00 0.06 0.00 43 1007.9
20260503212002 52 114 0.0 1.0 0.00 0.06 0.00 43 1007.8
20260503211507 52 115 0.0 1.0 0.00 0.06 0.00 43 1007.8
20260503211003 52 89 0.0 2.0 0.00 0.06 0.00 43 1007.7
20260503210506 52 86 0.0 2.0 0.00 0.06 0.00 44 1007.8
20260503210009 52 107 0.0 1.0 0.00 0.06 0.00 43 1007.8
20260503205505 51 84 0.0 1.0 0.00 0.06 0.00 43 1007.8
20260503205006 51 82 0.0 1.0 0.00 0.06 0.00 44 1007.8
20260503204514 51 84 0.0 3.0 0.00 0.06 0.00 44 1007.8
20260503204008 51 75 1.0 3.0 0.00 0.06 0.00 42 1007.9
20260503203507 51 91 0.0 2.0 0.00 0.06 0.00 42 1007.9
20260503203018 51 89 0.0 2.0 0.00 0.06 0.00 43 1007.9
20260503202507 51 70 0.0 2.0 0.00 0.06 0.00 44 1007.9
20260503202012 51 89 0.0 2.0 0.00 0.06 0.00 44 1008.0
20260503201524 51 74 0.0 1.0 0.00 0.06 0.00 44 1007.9
20260503201004 51 55 0.0 2.0 0.00 0.06 0.00 44 1007.9
20260503200503 52 44 0.0 2.0 0.00 0.06 0.00 44 1008.1
20260503200008 52 146 0.0 1.0 0.00 0.06 0.00 45 1008.0
20260503195502 53 50 0.0 2.0 0.00 0.06 0.00 45 1008.0
20260503195003 52 65 0.0 2.0 0.00 0.06 0.00 45 1008.1
20260503194512 52 104 0.0 1.0 0.00 0.06 0.00 47 1008.2
20260503194007 52 231 0.0 1.0 0.00 0.06 0.00 47 1008.3
20260503193508 51 229 0.0 1.0 0.00 0.06 0.00 46 1008.4
20260503193016 51 242 0.0 2.0 0.00 0.06 0.00 46 1008.5
20260503192508 52 246 0.0 2.0 0.00 0.06 0.00 45 1008.6
20260503192006 52 63 0.0 1.0 0.00 0.06 0.00 46 1008.6
20260503191522 53 64 0.0 1.0 0.00 0.06 0.00 48 1008.7
20260503191006 52 199 0.0 1.0 0.00 0.06 0.00 50 1008.6
20260503190506 51 208 0.0 1.0 0.00 0.06 0.00 48 1008.8
20260503190023 51 178 0.0 1.0 0.00 0.06 0.00 46 1008.8
20260503185503 51 179 0.0 2.0 0.00 0.06 0.00 47 1008.8
20260503185003 51 140 0.0 2.0 0.00 0.07 0.00 48 1008.9
20260503184510 51 243 0.0 3.0 0.00 0.07 0.00 47 1008.9
20260503184007 51 242 0.0 3.0 0.00 0.07 0.00 49 1008.9
20260503183508 51 99 0.0 3.0 0.00 0.07 0.00 50 1008.9
20260503183014 51 114 0.0 3.0 0.00 0.07 0.00 48 1009.0
20260503182505 50 117 1.0 3.0 0.00 0.07 0.00 49 1009.0
20260503182012 50 148 0.0 2.0 0.00 0.07 0.00 53 1009.0
20260503181516 50 323 0.0 0.0 0.00 0.07 0.00 57 1009.1
20260503181010 49 323 0.0 1.0 0.00 0.07 0.00 54 1009.2
20260503180507 49 323 0.0 2.0 0.00 0.07 0.00 51 1009.2
20260503180040 50 62 0.0 2.0 0.00 0.07 0.00 51 1009.1
20260503175507 50 338 0.0 3.0 0.00 0.07 0.00 50 1009.1
20260503175007 51 108 1.0 3.0 0.00 0.07 0.00 49 1009.1
20260503174529 51 78 0.0 4.0 0.00 0.07 0.00 50 1009.2
20260503174003 51 89 0.0 4.0 0.00 0.07 0.00 50 1009.3
20260503173503 51 347 0.0 2.0 0.00 0.07 0.00 50 1009.2
20260503173013 51 91 0.0 1.0 0.00 0.07 0.00 52 1009.2
20260503172507 50 91 0.0 2.0 0.00 0.07 0.00 56 1009.3
20260503172007 49 90 0.0 2.0 0.00 0.07 0.00 53 1009.3
20260503171516 49 89 0.0 2.0 0.00 0.07 0.00 56 1009.3
20260503171010 48 94 0.0 2.0 0.00 0.07 0.00 55 1009.3
20260503170508 48 87 0.0 3.0 0.00 0.07 0.00 54 1009.4
20260503151005 49 307 0.0 3.0 0.00 0.07 0.00 61 1010.4
20260503150509 49 307 0.0 3.0 0.00 0.07 0.00 58 1010.5
20260503131008 47 37 1.0 3.0 0.00 0.07 0.00 69 1010.9
20260503130508 47 321 0.0 1.0 0.00 0.07 0.00 68 1010.9
20260503110503 39 206 0.0 0.0 0.00 0.10 0.00 94 1011.1